Weather Roundup
Issued by NWS

Home | Current Version | Previous Version | Text Only | Print | Product List | Glossary On
Versions: 1 2 3 4 5 6 7 8 9 10 11 12 13 14 15 16 17 18 19 20 21 22 23 24 25 26 27 28 29 30 31 32 33 34 35 36 37 38 39 40 41 42 43 44 45 46 47 48 49 50
000
NZUS93 KARX 192359
HRRWXR

CURRENT HOURLY OBSERVATIONS ACROSS
MUCH OF THE UPPER MISSISSIPPI VALLEY
NATIONAL WEATHER SERVICE LA CROSSE WI
700 PM CDT SUN OCT 19 2014


...SOUTHEAST MINNESOTA...


CITY           SKY/WX    TMP DP  RH WIND       PRES   REMARKS
ROCHESTER      CLEAR     57  45  64 SW8       29.84R
ROCHESTER/MAYO FAIR      64  41  44 SW9       29.81S
WINONA         CLEAR     59  45  58 CALM      29.81R
AUSTIN         CLEAR     59  45  58 SW6       29.84R
ALBERT LEA     CLEAR     63  46  55 SW3       29.83S
DODGE CENTER   CLEAR     55  46  71 SW8       29.82S
PRESTON        CLEAR     60  45  58 SW10      29.84R
OWATONNA       CLEAR     57  45  62 S7        29.81S
FARIBAULT      CLEAR     61  45  55 SW3       29.81R
$$

...ELSEWHERE IN MINNESOTA...


CITY           SKY/WX    TMP DP  RH WIND       PRES   REMARKS
MINNEAPOLIS    CLEAR     64  44  48 W7        29.78R
INTNL FALLS    CLEAR     40  38  93 CALM      29.79R
DULUTH         PTCLDY    58  41  53 NW8       29.74R
RED WING       CLEAR     55  45  67 CALM      29.77S
REDWOOD FALLS  CLEAR     66  39  37 NW9       29.84R
MANKATO        CLEAR     64  41  42 NW8       29.82R
WORTHINGTON    CLEAR     59  39  47 W9        29.90R
FAIRMONT       CLEAR     63  43  48 W8        29.85R
$$

...SOUTHWEST WISCONSIN...


CITY           SKY/WX    TMP DP  RH WIND       PRES   REMARKS
LA CROSSE      PTCLDY    59  45  59 S9        29.82R
PRAIRIE DU CHI PTCLDY    59  43  54 CALM      29.87F
BOSCOBEL       CLEAR     58  43  57 SW7       29.88F
LONE ROCK      NOT AVBL
PLATTEVILLE    CLEAR     53  43  71 CALM      29.91S
FORT MC COY    PTCLDY    57  43  58 S6        29.83F
VIROQUA        FAIR      55  44  67 S5        29.85F
WIS DELLS      CLEAR     54  41  61 SW12      29.86F
$$

...ELSEWHERE IN WISCONSIN...


CITY           SKY/WX    TMP DP  RH WIND       PRES   REMARKS
MILWAUKEE      PTCLDY    52  40  63 S13       29.91F
MADISON        PTCLDY    55  42  61 SW6       29.90R
GREEN BAY      MOCLDY    52  43  71 S8        29.83F
EAU CLAIRE     NOT AVBL
BLACK RVR FLS  FAIR      58  44  58 S3        29.80F
MEDFORD        CLEAR     51  43  76 SW5       29.79R
WAUSAU         PTCLDY    50  43  77 S3        29.79S
WIS RAPIDS     PTCLDY    56  44  64 SW12      29.83S
MARSHFIELD     PTCLDY    52  44  74 SW8       29.80S
RICE LAKE      CLEAR     57  43  59 CALM      29.79S
$$

...NORTHEAST IOWA...


CITY           SKY/WX    TMP DP  RH WIND       PRES   REMARKS
DECORAH        CLEAR     59  46  63 VRB7G14   29.85S
MASON CITY     CLEAR     60  47  61 SW8       29.87R
CHARLES CITY   CLEAR     61  45  55 SW7       29.87R
OELWEIN        CLEAR     57  46  67 S13       29.89F
$$

...ELSEWHERE IN IOWA...


CITY           SKY/WX    TMP DP  RH WIND       PRES   REMARKS
DES MOINES     PTCLDY    62  46  55 SW9       29.94R
IOWA CITY      CLEAR     57  44  62 S7        29.94F
FORT DODGE     CLEAR     59  46  63 SW6       29.89S
$$

...NORTHERN ILLINOIS...


CITY           SKY/WX    TMP DP  RH WIND       PRES   REMARKS
CHICAGO-OHARE  MOCLDY    52  42  69 S9        29.97F
CHICAGO-MIDWAY CLOUDY    54  42  64 S12       29.98F
MOLINE         MOCLDY    58  42  55 SW8       29.95F
ROCKFORD       PTCLDY    51  41  68 S9        29.96F
PEORIA         MOCLDY    57  43  59 S8        30.00F
$$

NOTE: "FAIR" INDICATES FEW OR NO CLOUDS BELOW 12,000 FEET WITH NO
SIGNIFICANT WEATHER AND/OR OBSTRUCTIONS TO VISIBILITY. WIND
SPEEDS ARE IN MILES-PER-HOUR.



USA.gov is the U.S. government's official web portal to all federal, state and local government web resources and services.